RH
4 4 4 4 3 3 3 3 3 3 2 2 2 2 2 2 2 3 3 2 3 3 3 3 3 3 3 3 3 3 3 3 3 3 3 4 4 5 6 7 8 10 12 14 15 16 17 18 20 21 22 23 24 24 24 23 22 19 18 18 18 19 20
4 4 3 4 4 3 3 3 3 3 3 2 2 2 2 2 3 3 3 3 3 3 3 3 3 3 3 3 3 3 3 3 3 3 3 3 3 4 4 5 6 7 9 11 13 14 15 16 17 19 20 21 23 23 24 24 24 23 22 20 19 18 18
3 4 3 4 3 3 3 3 3 3 3 3 2 2 2 2 2 3 2 3 3 3 3 3 3 3 3 3 3 3 3 3 3 3 3 3 3 3 3 4 4 5 6 9 11 12 14 15 16 17 18 19 20 21 22 23 23 24 24 23 22 20 19
3 3 3 3 3 3 3 3 3 3 3 3 3 3 2 2 2 2 2 3 3 3 3 3 3 3 3 3 3 3 3 3 3 3 2 3 3 3 3 3 4 4 4 6 8 9 11 13 14 16 16 17 18 19 20 21 22 23 23 24 24 24 23
4 4 3 3 3 3 3 3 3 3 3 3 3 3 3 2 2 2 2 2 2 2 3 3 3 3 3 3 3 3 3 3 3 3 3 3 2 2 3 3 3 3 3 4 5 7 8 10 11 13 14 15 17 17 18 20 21 22 23 24 25 25 25
4 4 4 4 3 3 3 3 3 3 3 3 3 3 3 2 2 2 2 2 2 2 3 3 3 3 3 3 3 3 3 3 3 3 3 3 3 2 2 3 3 3 3 4 4 5 6 7 8 10 11 13 14 16 17 18 20 21 22 23 24 26 26
4 4 4 4 4 4 3 3 3 3 3 3 3 3 3 3 3 2 2 2 3 2 2 3 3 3 3 3 3 3 3 3 3 3 3 3 3 3 2 3 3 2 3 3 4 4 5 5 6 7 8 10 11 13 14 16 18 20 21 23 25 27 27
4 4 4 4 4 4 4 3 3 3 3 3 3 3 3 3 3 3 3 2 2 2 2 3 2 3 3 3 3 3 3 3 3 3 3 3 3 3 3 3 3 3 3 3 3 4 4 4 5 5 6 7 8 10 11 13 15 18 20 22 24 26 27
5 4 4 4 4 4 4 4 3 3 3 3 3 3 3 3 3 3 3 3 2 2 2 2 2 3 3 3 3 3 3 3 3 3 3 3 3 3 3 3 3 3 3 3 3 3 3 4 4 4 5 5 6 7 8 10 11 13 16 19 20 22 24
5 5 4 4 4 4 4 4 4 4 3 3 3 3 3 3 3 3 3 3 3 3 2 2 2 2 3 3 3 3 3 3 3 3 3 3 3 3 3 3 3 3 3 3 3 3 3 3 4 4 4 5 5 5 6 7 8 9 11 13 15 18 20
4 5 5 4 5 4 4 4 4 4 4 3 3 3 3 3 3 3 4 3 3 3 3 2 2 2 2 3 3 3 3 3 3 3 3 3 3 3 3 3 3 3 3 3 3 3 3 3 3 4 4 4 4 5 5 5 6 7 7 9 10 12 15
4 4 5 5 5 5 4 4 4 4 4 4 3 3 3 3 3 3 3 4 3 3 3 3 3 2 2 2 3 3 3 3 3 3 3 3 3 3 3 3 3 3 3 3 3 3 3 3 3 3 3 4 4 4 5 5 5 5 5 6 7 8 10
5 4 5 5 5 5 5 4 4 4 4 4 4 4 3 3 3 3 3 3 3 4 3 3 3 3 2 2 2 3 3 3 3 3 3 3 3 3 3 3 3 3 3 3 3 3 3 3 3 3 3 3 3 4 4 4 5 5 5 5 5 6 7
5 5 5 5 5 5 5 5 5 4 4 4 4 4 4 3 3 3 3 3 3 4 4 3 3 3 3 3 2 2 3 3 3 4 3 3 3 3 3 3 3 3 3 3 3 3 3 3 3 3 3 3 3 3 3 4 4 4 5 5 5 5 5
5 5 5 5 5 5 5 5 6 5 4 4 4 4 4 4 4 3 3 3 3 3 4 4 4 3 3 3 3 2 2 2 3 3 3 4 4 3 3 3 3 3 3 3 3 3 3 3 3 3 3 3 3 3 3 3 3 4 4 4 5 5 5
6 5 5 5 5 5 5 5 5 5 5 4 4 4 4 4 4 4 3 3 3 3 3 4 4 4 4 4 3 3 3 2 2 3 3 4 4 4 4 4 3 3 3 3 3 3 3 3 3 3 3 3 3 3 3 3 3 3 3 4 4 5 5
6 6 6 5 5 5 5 5 5 5 5 5 4 4 4 4 4 4 4 4 3 3 3 3 3 4 4 4 4 3 3 3 2 2 2 3 3 4 4 4 3 4 3 3 3 3 3 4 3 3 3 3 3 3 3 4 3 3 3 3 3 4 4
6 6 6 6 5 5 5 5 5 5 5 6 6 5 4 4 4 4 4 4 4 3 3 3 3 3 4 4 4 4 4 3 3 3 2 2 3 3 4 4 4 4 4 4 4 4 4 4 3 4 4 3 4 3 3 3 3 3 4 3 3 3 3
6 6 6 6 6 5 5 5 5 5 5 6 6 6 5 4 4 4 4 4 4 4 4 3 3 3 3 4 4 4 4 4 3 3 3 3 2 2 3 3 4 4 5 4 4 4 4 4 4 4 4 4 4 4 4 4 3 3 3 3 3 3 3
6 5 6 6 6 6 5 5 5 5 5 5 5 6 6 6 5 4 4 4 4 4 4 4 3 3 3 4 4 4 4 4 4 4 4 3 3 3 3 3 3 4 5 5 5 5 4 4 4 4 4 4 4 4 4 4 4 4 3 3 3 3 3
6 6 6 6 6 7 6 5 5 5 5 5 5 5 6 7 6 5 4 4 4 4 4 4 4 4 3 3 4 4 4 4 4 4 4 4 4 3 3 3 3 3 3 4 4 5 5 5 5 4 4 4 4 4 4 4 4 4 4 4 4 3 3
7 6 6 6 6 6 6 6 5 5 5 5 5 5 5 6 7 7 6 5 5 5 4 4 4 4 4 4 4 4 4 4 4 4 4 4 5 4 4 4 4 3 3 3 3 3 4 4 5 5 5 5 4 4 4 4 4 4 4 4 4 4 4
8 7 6 6 6 6 7 6 6 6 5 5 5 5 5 5 6 7 7 6 5 5 5 4 4 4 4 4 4 4 4 4 4 4 4 4 4 5 5 5 5 4 4 3 3 3 3 3 4 4 4 5 5 5 5 5 5 4 4 4 4 4 4
8 8 7 6 6 6 7 7 6 6 6 6 6 5 5 5 5 6 7 7 6 5 5 5 5 4 4 4 4 4 4 4 4 4 4 4 4 5 5 5 5 5 5 4 4 4 3 3 3 3 3 4 4 4 5 5 5 5 5 5 5 5 4
9 8 7 7 6 6 6 7 7 6 6 6 6 6 6 6 6 6 6 7 8 7 6 5 5 5 5 4 4 4 4 4 4 4 4 4 4 4 5 5 5 5 5 5 5 5 4 4 4 3 3 3 3 3 4 4 4 5 5 5 5 5 5
9 9 9 8 7 6 6 6 7 7 6 6 6 6 6 6 6 6 6 7 8 8 8 6 5 5 5 5 5 4 4 4 4 4 4 5 4 4 4 4 5 5 5 5 5 5 5 5 4 4 4 4 4 4 3 3 3 3 4 4 4 4 5
9 9 10 9 8 7 6 6 7 7 7 6 6 6 7 6 6 7 7 7 7 8 9 8 7 6 5 5 5 5 4 4 4 4 4 5 5 5 4 4 5 5 5 5 5 5 5 5 5 5 5 5 5 4 4 4 4 4 4 3 3 3 3
10 9 9 10 9 8 7 7 6 6 7 7 6 6 6 7 7 7 7 7 8 8 9 9 9 8 7 5 5 5 5 5 4 4 4 4 5 5 5 5 5 5 5 5 5 5 5 5 5 5 5 5 5 5 5 4 4 4 4 4 4 4 4
12 9 9 10 10 9 8 8 7 7 7 7 7 6 6 7 7 7 7 7 8 8 9 9 10 10 9 8 6 5 5 5 5 5 5 4 4 5 5 5 5 5 5 5 5 5 5 5 5 5 5 5 5 5 5 5 5 5 5 5 4 4 4
14 10 9 9 10 10 9 9 8 8 7 7 7 7 6 6 7 8 8 7 8 8 9 10 11 11 11 10 9 7 6 5 5 5 5 5 5 5 5 5 5 5 5 5 5 5 5 5 5 5 5 5 5 5 5 5 5 5 5 5 5 4 4
17 12 10 9 10 10 9 9 8 8 8 8 7 7 7 6 7 7 8 8 8 8 9 10 11 12 12 11 11 10 8 6 5 5 5 5 5 5 5 5 5 5 5 5 5 5 5 5 5 5 5 5 5 5 5 5 5 5 5 5 5 4 4
17 13 11 10 10 9 9 9 8 8 8 8 8 8 7 7 6 7 8 8 8 8 8 9 10 11 12 13 12 11 11 9 8 6 6 6 6 5 5 5 5 5 5 5 5 5 5 5 5 5 5 5 5 5 5 5 5 6 5 5 5 5 4
19 14 11 10 10 10 9 9 8 8 8 8 8 8 8 7 7 7 7 8 9 9 9 8 9 10 11 13 13 13 12 12 11 9 7 6 6 6 6 5 5 5 5 5 5 5 5 5 5 5 5 5 5 5 5 5 5 5 5 5 5 5 5
24 17 12 11 11 11 10 9 8 8 9 8 7 8 8 8 7 7 7 8 9 9 9 9 9 9 10 11 13 14 13 13 12 11 10 8 7 6 6 6 6 5 5 5 5 5 5 5 5 5 5 5 5 6 5 5 5 5 5 5 5 5 5
30 21 14 11 11 11 12 11 9 8 8 9 8 8 8 8 8 7 7 7 8 9 10 10 9 9 9 10 11 13 14 14 14 13 12 11 9 8 7 6 6 6 5 5 5 5 5 5 5 5 5 5 5 6 6 6 6 6 6 6 6 6 6
32 24 16 12 12 12 12 12 10 9 8 8 8 8 8 8 8 8 8 7 7 8 9 10 10 10 10 10 10 11 13 15 15 15 14 13 12 11 9 7 7 7 6 6 5 5 5 5 5 5 5 5 5 6 6 6 6 6 6 6 6 6 6
Wind_Speed
37 40 42 45 47 49 52 55 57 60 63 66 69 72 75 78 81 84 85 86 88 92 96 100 104 107 109 112 114 116 118 120 123 125 129 132 135 138 140 143 146 146 147 149 152 154 155 157 158 159 160 159 159 159 160 160 160 159 159 159 159 160 160
35 37 39 42 45 47 49 51 53 56 59 62 65 67 69 72 75 78 80 81 83 86 89 93 98 102 105 108 110 112 114 117 119 122 124 126 128 130 133 137 140 142 143 145 149 151 153 155 158 159 159 159 160 160 160 160 160 160 159 159 159 159 159
32 34 36 39 42 44 46 48 49 52 55 58 61 63 65 68 71 73 75 77 80 82 85 88 92 95 98 102 105 108 110 113 116 118 120 121 123 125 127 130 133 136 138 141 145 148 150 153 156 158 158 159 160 160 161 160 160 160 160 160 160 160 159
31 32 34 36 38 41 43 45 47 48 51 54 57 60 62 65 68 70 71 74 76 79 82 84 87 89 91 94 98 102 106 109 112 115 116 117 118 120 122 124 127 130 133 136 140 144 147 150 153 155 156 158 159 160 160 160 160 160 160 160 160 160 160
32 32 32 33 35 37 40 42 44 46 47 50 53 56 59 61 64 66 68 70 72 75 77 80 83 85 86 89 92 96 99 103 106 110 112 114 115 116 118 121 124 125 126 129 133 138 142 146 149 152 153 155 157 159 159 160 160 161 161 160 160 161 161
32 32 32 32 33 34 36 39 41 44 45 47 49 52 55 57 60 62 64 65 67 70 73 76 78 81 83 85 87 89 93 96 100 103 107 110 112 113 115 117 120 121 121 123 126 131 136 141 144 147 149 152 155 157 157 158 159 160 161 161 161 161 162
31 31 31 32 32 33 34 35 37 40 43 44 46 49 51 53 55 58 60 62 65 67 69 72 74 77 79 81 83 85 87 90 94 97 101 104 107 110 111 113 115 117 118 119 122 125 130 134 138 141 144 147 151 153 155 156 157 158 159 160 161 163 164
30 31 31 31 31 32 32 33 34 36 39 42 43 45 47 49 51 54 57 60 63 65 66 69 71 73 75 78 80 81 83 85 88 91 94 98 102 105 108 110 112 113 115 116 118 121 125 129 133 136 139 142 145 149 151 152 154 155 157 159 161 163 165
28 29 30 31 31 31 31 32 32 33 35 38 41 43 44 46 48 50 53 56 59 61 63 65 67 69 71 73 76 78 80 82 83 86 89 92 95 99 102 105 108 110 111 113 114 117 120 124 128 131 134 137 141 144 146 148 151 152 154 157 160 161 163
26 26 27 29 30 31 31 31 32 32 33 35 37 40 42 43 45 47 50 52 55 57 59 61 63 66 68 70 72 74 77 79 81 82 84 86 90 93 96 100 103 105 108 110 111 113 116 119 123 126 130 133 136 139 141 144 146 148 150 153 156 158 160
28 26 26 26 28 30 31 31 31 31 32 32 34 36 39 41 43 45 47 49 52 54 56 58 59 61 63 66 68 71 73 76 78 79 81 82 84 88 91 94 97 100 103 105 108 109 112 114 118 122 125 128 131 134 137 139 142 143 145 148 151 153 155
30 28 27 26 26 27 29 30 31 31 31 32 32 33 36 38 40 42 44 47 49 51 53 54 56 58 59 61 64 67 69 72 74 76 78 79 81 83 86 89 92 95 97 100 102 105 108 110 114 118 121 124 126 129 132 134 137 138 140 143 145 147 150
31 29 28 27 26 26 26 28 30 31 31 32 32 32 33 35 37 39 41 44 46 48 50 52 53 55 56 57 59 62 65 68 71 73 75 77 78 80 82 84 88 91 93 95 97 99 102 106 109 113 116 119 122 124 126 128 130 132 134 137 140 142 144
31 30 29 27 27 26 25 26 28 29 31 31 32 32 32 33 35 37 39 41 43 45 47 49 50 52 53 55 56 58 60 63 67 70 72 74 76 78 79 80 83 86 89 91 93 95 98 101 104 108 111 114 116 119 120 122 124 127 129 131 134 136 138
31 30 30 28 27 26 25 25 26 28 29 30 31 31 32 32 33 35 36 38 40 42 44 46 48 50 51 53 54 55 57 59 62 65 69 71 74 75 77 78 80 82 84 87 90 92 94 96 99 103 106 109 111 113 115 117 119 121 123 125 127 129 132
32 31 30 29 28 26 25 24 24 25 27 29 30 31 31 32 32 34 35 36 37 39 41 43 46 47 49 50 52 53 55 56 58 61 65 68 70 72 74 76 78 79 80 82 84 87 90 93 95 98 100 103 106 108 111 113 115 116 118 119 121 124 127
33 32 30 30 29 27 26 25 23 23 24 26 28 29 30 31 31 32 34 35 36 37 38 41 43 44 46 48 50 51 53 54 56 58 61 63 66 69 71 74 75 76 77 78 80 82 85 89 91 93 96 98 100 103 106 108 110 112 113 115 117 119 123
34 32 31 30 30 28 27 26 25 23 22 23 25 28 29 30 31 31 32 34 35 36 37 38 40 41 43 45 47 49 51 52 54 56 58 60 62 64 67 70 71 72 74 75 77 79 81 84 86 89 92 94 96 98 100 103 105 108 110 111 113 115 118
35 33 31 30 30 29 28 26 26 24 22 21 22 25 27 29 30 31 31 32 33 35 36 37 38 38 39 41 43 46 48 50 52 54 55 57 58 61 63 65 65 68 71 73 75 76 78 80 83 85 87 90 93 95 97 99 101 103 105 106 108 111 113
37 34 32 31 30 30 29 27 26 26 25 22 21 22 24 26 28 30 31 31 32 33 35 36 37 37 37 38 40 43 45 47 49 51 52 54 55 57 58 59 61 65 69 71 73 75 77 79 80 81 84 86 89 91 93 95 97 99 100 101 103 106 108
41 37 34 32 31 30 30 29 27 26 26 25 22 21 21 23 25 27 29 31 31 32 32 34 36 37 37 37 38 40 43 45 47 48 49 51 52 54 54 56 59 63 66 68 71 73 75 77 78 79 80 82 84 86 88 91 93 94 96 97 99 101 103
43 40 37 34 33 31 31 30 29 27 26 26 25 23 21 21 23 25 27 28 30 31 32 32 33 35 36 37 37 39 40 42 44 46 47 48 50 51 52 55 58 60 63 66 68 70 72 74 75 76 78 79 81 83 84 86 88 90 91 93 95 98 100
44 41 38 36 34 33 32 31 30 29 27 26 26 25 23 22 22 23 25 26 28 29 31 32 32 33 35 36 37 38 39 40 42 44 45 46 48 49 51 53 55 58 60 63 65 67 69 71 73 74 75 77 78 79 80 82 84 86 87 89 92 94 96
44 42 40 37 35 34 33 32 31 30 29 27 26 25 25 24 22 22 23 25 26 27 29 30 31 32 33 34 36 37 37 38 40 41 43 44 46 47 49 51 53 55 57 59 61 64 66 67 69 71 72 74 75 76 78 79 81 82 84 86 88 90 92
45 43 41 38 35 33 33 32 32 31 30 28 27 26 25 24 24 23 23 24 25 26 27 28 30 31 32 33 34 35 36 37 38 39 41 43 45 46 48 49 51 53 55 57 59 60 62 64 65 67 68 70 71 73 76 77 79 80 82 83 85 86 88
45 44 42 41 37 34 32 32 32 31 31 29 28 26 25 24 24 25 25 24 24 25 26 27 28 29 30 32 33 34 35 36 36 37 38 40 43 45 46 47 49 51 53 55 56 57 59 60 61 62 64 66 68 71 73 74 76 77 79 80 82 83 85
46 44 42 42 40 37 34 32 31 30 30 30 28 27 26 25 24 24 25 25 25 25 25 26 27 28 29 30 32 33 34 35 35 36 37 38 40 42 44 46 47 49 51 52 54 55 57 57 58 59 62 64 66 68 69 71 72 73 75 76 78 79 81
47 44 42 41 41 40 37 35 32 30 30 29 29 28 26 25 24 24 24 25 26 26 25 25 26 27 28 29 30 32 33 33 34 35 36 37 38 40 42 44 46 47 49 50 51 53 54 54 55 57 59 61 63 65 66 67 68 69 71 72 74 75 77
47 45 43 41 40 39 39 37 35 33 32 30 29 28 27 26 25 24 24 24 25 26 27 26 26 26 27 28 29 30 31 32 33 33 34 35 37 38 40 42 44 45 47 48 49 50 51 52 53 54 56 57 59 62 63 64 65 66 67 69 71 73 74
48 46 44 41 39 39 38 37 36 34 33 33 31 29 27 26 25 24 23 23 23 25 27 27 27 27 27 27 28 29 30 31 31 32 33 34 35 37 38 40 42 43 45 46 47 48 49 50 51 52 53 54 56 58 60 60 61 62 64 67 69 70 71
49 47 45 43 40 38 37 36 35 33 32 32 32 31 29 27 25 24 23 23 22 23 25 26 28 28 28 27 28 28 29 30 30 31 31 32 34 35 37 38 40 42 43 44 45 46 47 48 49 50 51 52 53 55 56 57 58 60 62 64 66 67 68
50 49 47 45 42 40 38 36 35 34 32 31 31 31 30 28 26 25 24 23 22 22 23 24 26 27 28 28 28 28 28 29 29 30 30 31 32 34 35 37 38 40 41 43 44 45 46 46 47 48 49 49 50 52 53 54 56 57 59 61 63 65 65
52 50 48 46 44 42 40 38 36 35 34 32 30 31 31 29 27 25 25 24 23 22 22 23 24 25 27 28 28 28 28 28 28 29 30 30 31 32 33 35 36 38 39 40 42 43 44 45 46 46 46 47 48 49 51 52 53 55 56 58 60 61 62
54 52 50 48 46 44 42 40 38 36 34 33 32 31 31 30 28 26 25 24 23 22 22 22 22 24 25 26 27 28 28 28 28 28 29 30 30 31 32 33 34 36 37 38 39 40 42 43 44 45 45 44 45 47 48 50 51 52 53 54 56 57 58
52 52 51 49 47 45 44 42 40 37 35 34 33 31 31 30 29 27 25 24 24 23 22 22 22 22 24 25 26 27 27 28 28 28 28 29 29 30 31 32 33 34 35 36 37 38 39 40 41 42 43 43 43 44 46 47 48 49 50 51 52 53 55
51 51 51 49 47 45 44 43 42 40 37 34 33 32 31 30 30 28 26 25 24 24 23 22 21 22 22 24 25 26 26 27 27 27 28 28 28 29 30 30 31 32 33 34 35 36 37 38 39 40 41 42 42 43 44 45 45 46 47 48 49 50 52
Wind_Direction
274 271 268 266 263 259 257 255 253 252 249 248 246 244 243 243 243 244 245 245 244 243 242 242 242 241 241 240 240 240 240 239 239 239 239 239 238 237 237 236 236 235 235 236 237 237 238 238 239 239 240 240 240 240 240 240 241 241 241 242 242 242 243
277 274 271 268 266 263 259 256 254 253 251 249 248 246 245 243 243 243 243 243 243 243 243 242 241 241 241 240 240 240 239 239 239 239 239 239 238 238 237 237 236 236 235 235 236 237 237 238 238 238 239 239 240 240 240 240 241 241 241 242 242 242 243
283 278 274 271 268 266 263 260 256 253 252 251 249 247 246 244 243 242 241 241 241 241 241 242 242 241 240 240 240 240 239 239 239 240 239 239 238 238 238 237 237 236 235 235 235 236 236 237 238 238 238 239 239 240 240 241 241 241 241 241 242 242 243
290 284 278 274 271 268 266 263 259 255 253 252 250 248 247 245 244 243 242 240 239 239 239 240 241 241 241 240 240 240 239 239 239 239 239 239 238 238 238 237 237 236 235 234 235 236 236 236 237 237 238 238 239 239 240 240 241 241 241 241 241 242 243
296 291 285 279 275 271 268 265 262 259 255 253 251 250 248 247 246 245 244 242 240 239 238 238 239 240 240 240 240 240 239 239 239 239 239 239 239 238 237 237 237 236 235 234 235 235 236 237 237 237 237 238 238 239 239 239 240 240 241 241 241 241 242
299 295 291 286 281 275 271 267 264 262 259 256 253 252 250 248 247 246 246 245 243 242 240 239 239 239 240 240 240 240 239 239 239 239 239 239 239 238 238 237 237 237 235 234 234 235 236 237 237 237 237 237 238 239 239 239 239 240 240 241 241 241 241
302 298 295 291 287 282 277 271 267 264 261 259 256 254 252 250 248 247 246 244 243 242 241 240 239 238 239 239 240 240 239 239 239 239 238 238 239 239 238 238 238 237 236 235 234 234 235 236 237 237 237 237 238 238 239 239 239 239 240 240 241 241 241
306 302 298 294 290 286 283 277 272 267 263 261 259 257 255 252 250 247 246 245 244 243 241 241 240 239 239 239 239 239 240 239 239 239 238 238 238 238 238 238 238 238 237 236 234 234 234 235 236 236 237 237 238 238 238 239 239 239 239 239 240 240 241
310 306 302 298 294 290 286 282 277 272 267 263 260 259 257 255 252 249 247 247 247 245 244 242 242 241 240 239 239 239 239 240 239 239 239 238 239 238 238 238 238 237 237 237 236 235 234 235 235 236 236 237 237 237 238 238 238 238 238 239 239 240 241
317 310 305 301 298 294 290 286 282 278 272 266 262 260 258 256 254 251 249 247 247 247 246 245 243 242 241 240 239 239 239 239 239 239 239 238 238 238 239 238 238 238 237 237 236 236 235 235 235 236 236 237 237 237 237 238 238 238 238 239 239 240 240
323 317 310 304 300 297 293 289 286 282 278 272 266 262 259 258 256 254 251 249 247 247 247 246 245 244 243 241 240 240 239 239 239 239 239 238 238 238 238 238 239 238 238 237 237 236 236 236 236 236 237 237 237 237 238 238 238 238 238 238 239 239 240
328 322 316 310 305 300 296 292 288 285 282 278 273 267 262 259 257 255 253 251 250 248 247 247 246 245 244 243 241 240 240 240 240 240 240 239 239 238 237 237 238 238 238 238 238 237 237 236 236 236 237 237 237 237 238 238 238 238 238 239 239 239 240
333 327 321 315 310 304 299 295 291 287 285 282 278 273 268 262 258 256 254 253 252 251 249 248 247 246 245 244 242 241 240 240 240 240 240 240 239 239 238 237 237 237 237 237 237 237 237 237 237 237 237 237 238 238 238 238 238 239 239 239 240 240 240
336 332 326 319 313 308 302 298 293 289 285 283 280 277 274 269 263 258 255 253 253 252 251 250 249 247 246 245 243 241 240 239 239 240 239 239 239 239 239 238 237 236 236 236 237 237 237 237 237 237 238 238 238 239 239 239 239 239 239 239 240 240 241
338 336 331 324 317 310 305 299 294 290 287 284 281 279 276 273 270 264 259 255 252 252 252 252 250 249 248 246 245 243 241 239 239 239 239 240 239 240 239 239 238 237 236 236 236 236 237 237 237 237 238 238 239 239 239 240 240 240 239 239 240 240 241
338 337 335 330 323 315 308 302 295 291 287 284 281 279 277 275 272 270 265 260 255 252 251 251 251 250 249 248 246 245 243 240 239 238 238 239 240 240 240 240 239 239 238 237 236 236 237 237 237 237 238 238 238 239 239 240 240 240 240 240 240 240 240
340 338 336 333 328 321 313 306 300 293 289 285 282 280 278 276 273 271 269 266 261 256 252 250 250 250 250 249 248 246 245 243 241 239 238 238 239 239 240 241 241 240 240 238 237 237 237 237 237 238 238 238 238 239 239 240 240 240 240 240 240 240 240
342 340 338 335 332 327 319 311 304 299 293 288 284 281 278 276 274 272 269 268 266 262 257 253 250 249 250 250 249 248 246 245 244 242 240 239 238 238 239 240 241 242 242 241 240 238 238 237 237 238 238 239 239 239 239 240 240 240 240 240 240 240 241
343 341 339 337 334 330 325 318 310 303 297 291 286 282 279 277 275 274 271 268 266 265 262 259 254 251 249 249 249 249 248 247 245 244 242 241 240 239 239 239 240 241 242 242 241 240 239 238 238 237 238 238 239 239 239 240 240 240 240 241 241 241 241
343 342 340 339 336 333 329 324 316 308 302 296 290 285 282 279 276 274 273 271 268 265 263 262 259 255 251 249 248 249 249 248 247 246 244 243 242 240 240 239 239 239 240 240 241 241 241 240 239 238 238 238 238 239 239 240 240 241 241 241 241 242 242
343 342 341 339 338 335 331 328 323 314 306 301 296 290 286 283 279 275 272 272 270 268 264 262 261 258 255 251 249 248 248 248 247 247 246 244 243 242 240 239 238 238 238 239 239 240 241 241 241 241 240 240 239 239 240 240 240 241 241 241 242 242 242
343 342 341 340 338 337 333 330 326 321 313 305 299 295 290 286 283 278 274 271 271 270 268 264 261 259 257 254 251 249 249 248 248 247 246 246 245 243 242 240 239 239 238 238 239 239 240 240 241 241 241 241 241 241 240 240 240 241 241 241 241 242 242
343 342 341 340 338 337 334 331 328 325 319 310 303 299 295 291 287 283 279 274 271 270 269 267 264 260 258 255 252 250 250 249 249 248 247 246 245 244 243 242 241 240 240 240 239 239 239 240 240 241 241 242 242 242 242 242 242 241 241 241 241 241 242
344 342 342 341 339 337 335 332 329 326 323 316 308 302 298 295 292 288 284 280 276 271 269 267 266 264 260 257 254 251 249 249 249 249 248 246 245 244 243 242 242 242 242 241 241 241 240 240 240 240 240 241 242 242 242 243 243 242 242 242 242 242 242
345 343 342 341 340 338 335 333 330 327 324 321 314 306 300 297 296 293 289 284 280 276 272 268 266 265 263 261 257 254 251 249 248 248 249 248 247 245 244 243 242 242 242 242 242 241 242 241 241 241 241 241 241 241 241 241 242 242 242 243 243 243 243
346 345 343 340 339 339 337 334 331 328 325 323 319 312 304 299 297 296 293 289 284 280 276 272 269 266 264 262 260 257 254 252 249 248 248 248 248 247 246 245 243 242 242 242 242 241 241 241 241 242 242 242 242 242 241 241 241 241 242 242 242 243 243
345 345 344 342 339 339 338 335 332 329 326 323 321 316 310 303 298 296 295 293 289 284 280 276 273 270 266 263 261 259 257 255 252 250 249 248 248 248 247 246 245 244 243 243 243 242 242 241 240 240 240 241 242 242 242 242 242 242 242 242 242 242 243
345 345 345 343 341 339 338 336 333 331 327 324 322 320 315 308 300 296 294 293 292 290 285 280 276 273 270 267 263 260 258 256 254 253 251 249 248 248 248 247 245 244 244 244 243 243 243 242 241 240 240 240 240 241 242 242 242 243 243 243 243 243 243
345 344 344 344 343 340 339 337 335 332 330 327 324 321 318 312 305 297 293 292 292 292 289 285 280 276 273 270 267 263 259 257 255 253 252 251 250 249 248 248 247 246 245 244 243 243 243 243 242 242 241 240 240 241 241 241 241 242 243 243 243 243 243
345 344 344 344 344 342 340 338 336 334 330 327 324 322 319 315 310 302 295 291 291 291 290 288 284 280 276 273 270 266 263 259 256 254 253 252 251 250 249 248 248 247 246 245 244 243 242 242 241 241 241 241 241 241 242 241 241 241 241 242 242 243 243
343 344 344 343 343 343 341 339 337 335 331 327 323 321 319 317 314 308 300 294 290 289 289 288 286 283 279 276 273 270 267 263 259 256 254 253 251 251 250 249 248 247 247 246 246 245 244 242 242 241 241 241 241 241 242 242 241 241 240 241 242 242 242
342 343 343 343 343 342 342 340 338 336 333 328 324 321 319 318 316 313 307 300 293 289 287 287 285 284 281 278 275 272 270 267 264 260 257 254 253 251 251 250 249 248 247 247 246 246 245 245 244 243 242 241 241 242 242 242 241 241 241 241 242 242 242
340 341 342 343 343 342 341 341 339 337 335 331 326 322 319 318 317 314 310 305 298 292 288 286 285 284 282 280 277 274 271 269 267 264 261 258 255 253 252 251 250 249 248 248 247 247 246 246 246 245 244 242 242 242 242 242 242 242 242 242 242 243 243
339 339 340 341 342 342 341 340 339 338 336 333 329 324 320 318 316 315 312 308 303 297 291 287 285 284 283 281 278 276 273 270 268 266 263 260 258 256 254 253 251 250 249 248 248 248 248 247 247 246 245 244 243 243 243 242 242 242 242 243 243 244 244
337 337 339 340 341 341 341 340 339 338 337 335 331 327 322 318 316 314 313 310 306 301 295 291 287 285 284 283 280 277 274 272 270 267 265 262 260 258 256 255 253 251 250 249 248 248 248 248 248 247 246 245 243 243 243 243 242 242 242 242 242 243 243
337 336 337 338 339 340 340 339 338 337 336 335 333 329 324 319 316 314 312 310 308 305 300 295 290 286 284 283 282 280 277 273 271 269 267 265 263 260 258 257 255 254 252 251 249 248 248 248 248 248 247 246 245 244 244 243 243 242 241 241 241 241 242